Weather in Mayurovo

Russia / Novosibirsk Oblast     54°18′43″N   82°25′42″E
temp.,
°C
wind,
m/s
gust,
m/s
humid.,
%
clouds,
%
prec.,
mm/h
press.,
hPa
HPBL,
m
1 march, mon
mon101:00−11se61193100 0.3 1020404
04:00−10sse71193100 0.5 1015426
07:00−7sse71294100 1.6 1012633
10:00−4s81395100 1.4 1009726
13:000sw71299100 5.1 1008716
16:000sw61199100 2.3 1007680
19:000wsw61199100 3.8 1007587
22:00−1sw81396100 2.8 1007735
2 march, tue
tue201:00−4w4898100 3.8 1009402
04:00−9nnw2397100 0.6 101081
07:00−12nw239696 0.9 101244
10:00−12w249698 0.3 1014187
13:00−9w359396 0.3 1016424
16:00−8wsw3491100 0.1 1016521
19:00−11wsw1296100 0.3 101645
22:00−13nnw119795 0.2 101620
3 march, wed
wed301:00−16nnw019893 0.3 101620
04:00−16wnw119789 0.1 101620
07:00−15wsw119792 0.3 101720
10:00−13sw2295100 0.2 1017123
13:00−11sw349299 0.3 1019415
16:00−10sw5791100 0.3 1020603
19:00−11sw4993100 0.3 1021318
22:00−15ssw5119696 0.1 1022327
4 march, thu
thu401:00−16s5109798 0.1 1023241
04:00−14s61294100 0.0 1021385
07:00−10s71392100 0.2 1021530
10:00−9s81589100 0.1 1020594
13:00−7ssw91590100 0.2 1019576
16:00−5ssw91691100 0.1 1018668
19:00−5ssw81687100 0.1 1017707
22:00−6ssw81788100 0.1 1016552
5 march, fri
fri501:00−7ssw71787100 0.1 1015461
04:00−7s8178589 0.0 1013463
07:00−7s7148695 0.0 1011430
10:00−5ssw71395100 0.8 1010663
13:00−3sw71295100 1.9 1010667
16:00−1wsw81294100 0.6 10131087
19:00−6wsw6138796 0.8 1019517
22:00−9sw7159186 0.0 1021495